AirNav   Everest Fuels
 
 1072 users online  

PN07 Cranes-N-Lifts Inc Heliport
White Haven, Pennsylvania, USA

GOING TO WHITE HAVEN?


FAA INFORMATION EFFECTIVE 18 JUNE 2020

Location

FAA Identifier: PN07
Lat/Long: 41-01-51.3050N 075-46-42.6960W
41-01.855083N 075-46.711600W
41.0309181,-75.7785267
(estimated)
Elevation: 1360 ft. / 415 m (estimated)
Variation: 12W (1990)
From city: 1 mile SW of WHITE HAVEN, PA
Time zone: UTC -4 (UTC -5 during Standard Time)
Zip code: 18661

Heliport Operations

Heliport use: Private use. Permission required prior to landing
Activation date: 03/1994
Control tower: no
ARTCC: NEW YORK CENTER
FSS: WILLIAMSPORT FLIGHT SERVICE STATION
Attendance: UNATNDD
Segmented circle: no

Heliport Communications

WX AWOS-3 at HZL (10 nm W): 119.975 (570-459-4901)
WX AWOS-3PT at 22N (13 nm S): 119.350 (570-386-3423)
WX ASOS at AVP (19 nm N): 111.6 (570-655-0748)
WX ASOS at MPO (19 nm E): 120.275 (570-839-1584)

Nearby radio navigation aids

VOR radial/distance  VOR name  Freq  Var
LVZr205/15.1WILKES-BARRE VORTAC111.6010W
FJCr331/23.4ALLENTOWN VORTAC117.5010W
ETXr360/27.3EAST TEXAS VOR/DME110.2009W

Heliport Services

Runway Information

Helipad H1

Dimensions: 70 x 70 ft. / 21 x 21 m
Surface: concrete
Traffic pattern: leftleft

Heliport Ownership and Management from official FAA records

Ownership: Privately-owned
Owner: CRANES-N-LIFTS INC
RD 1
WHITE HAVEN, PA 18661
Phone 717-443-7555
Manager: FLOYD C HOFFMAN - PRESIDENT
RD 1
WHITE HAVEN, PA 18661
Phone 717-443-7555

Additional Remarks

FOR CD CTC WILKES-BARRE APCH AT 570-655-2084.

Instrument Procedures

There are no published instrument procedures at PN07.

Some nearby airports with instrument procedures:

KHZL - Hazleton Regional Airport (10 nm W)
22N - Jake Arner Memorial Airport (13 nm S)
KWBW - Wilkes-Barre Wyoming Valley Airport (16 nm N)
KAVP - Wilkes-Barre/Scranton International Airport (19 nm N)
KMPO - Pocono Mountains Municipal Airport (19 nm E)
 
Loc | Ops | Rwys | IFR | FBO | Links
Com | Nav | Svcs | Stats | Notes
Area around PN07 (Cranes-N-Lifts Inc Heliport)
 
Road maps at: MapQuest Bing Google
 
Aerial photo
No photo
 
Sectional chart

 
Airport distance calculator
Flying to Cranes-N-Lifts Inc Heliport? Find the distance to fly.

From to PN07

Sunrise and sunset
Times for 12-Jul-2020
 Local
(UTC-4)
 Zulu
(UTC)
Morning civil twilight05:1009:10
Sunrise05:4309:43
Sunset20:3400:34
Evening civil twilight21:0701:07

Current date and time
Zulu (UTC)  12-Jul-2020 19:36:04
Local (UTC-4)  12-Jul-2020 15:36:04
 
METAR
KHZL 
10nm W 
121917Z AUTO 00000KT 10SM SCT100 BKN120 26/15 A2982 RMK AO2
K22N 
13nm S 
121924Z AUTO 00000KT 10SM SCT050 SCT060 BKN100 28/18 A2974 RMK AO2
KAVP 
18nm N 
121854Z 24005KT 10SM SCT050 BKN065 BKN090 29/16 A2974 RMK AO2 SLP062 T02890161 PNO $
KMPO 
19nm E 
121853Z AUTO 20008KT 10SM SCT055 26/15 A2981 RMK AO2 SLP080 T02610150
TAF
KAVP 
18nm N 
121729Z 1218/1318 26008KT P6SM SCT100 FM122100 25007KT P6SM BKN150 FM130000 00000KT P6SM BKN110 FM130300 29005KT P6SM BKN080 FM131600 30005KT P6SM BKN060
NOTAMs
Click for the latest NOTAMs
NOTAMs are issued by the DoD/FAA and will open in a separate window not controlled by AirNav.

 

 
 

Would you like to see your business listed on this page?

 If your business provides an interesting product or service to pilots, flight crews, aircraft, or users of the Cranes-N-Lifts Inc Heliport, you should consider listing it here.  To start the listing process, click on the button below
 
Add a business
 

Other Pages about Cranes-N-Lifts Inc Heliport

Update a link
 
Copyright © AirNav, LLC. All rights reserved. Privacy Policy  Contact